Simultaneous Nadir Overpasses (SNOs) Predictions

Prediction of SNOs between AQUA and METOP-B Satellite Orbit:

Table of predicted SNOs for the next 14.0 days since TLE Epoch: 2/20/2021
Index Date (AQUA) Time (AQUA) Lat,Lon (AQUA) SZA (AQUA ) Date (METOP-B) Time (METOP-B) Lat,Lon (METOP-B) SZA (METOP-B ) Distance(km) Time Diff (sec)
1 02/22/2021 00:34:41 73.76, 165.66 84.05 02/22/2021 00:33:46 73.74, 165.58 84.05 3.30 55
2 02/22/2021 01:24:08 -73.82, -26.83 95.90 02/22/2021 01:24:27 -73.81, -26.93 95.91 3.62 19
3 02/22/2021 02:13:47 74.43, 139.40 84.76 02/22/2021 02:14:54 74.41, 141.90 84.62 74.60 67
4 02/24/2021 20:08:56 73.75,-127.87 83.00 02/24/2021 20:08:07 73.76,-127.96 83.03 3.16 49
5 02/24/2021 20:58:23 -73.86, 39.53 96.90 02/24/2021 20:58:47 -73.83, 39.53 96.93 3.00 24
6 02/27/2021 15:43:11 73.79, -61.52 81.99 02/27/2021 15:42:27 73.78, -61.50 81.99 1.40 44
7 02/27/2021 16:32:38 -73.85, 105.99 97.97 02/27/2021 16:33:08 -73.85, 105.99 97.97 0.22 30
8 03/02/2021 11:17:26 73.79, 4.92 80.91 03/02/2021 11:16:48 73.80, 4.95 80.93 1.47 38
9 03/02/2021 12:06:53 -73.85, 172.44 99.05 03/02/2021 12:07:29 -73.87, 172.44 99.03 2.38 36
10 03/05/2021 06:51:41 73.80, 71.35 79.83 03/05/2021 06:51:09 73.82, 71.41 79.85 2.96 32
11 03/05/2021 07:41:08 -73.85,-121.13 100.13 03/05/2021 07:41:51 -73.84,-121.23 100.15 3.37 43



Historial Predications of SNOs between AQUA and METOP-B
